Live-Position
3D-Globus wird geladen...
Über Starlink 5280
Group: 3 satellites
Beschreibung wird geladen...
Nächste Überflüge
Passes for default location (London). Set your location on the main map for personalized predictions.
Höhenverlauf
Loading altitude history...
No altitude history available
Zweizeiliger Elementsatz
1 54166U 22141K 26126.17199524 .00000881 00000-0 73440-4 0 9996
2 54166 53.2175 106.2013 0001187 77.4474 282.6651 15.08843901194531
Epoch: 6. Mai 2026 •
Age: 11 hours
Aktueller Status
Höhe 540.1 km
Geschwindigkeit 7.59 km/s
Subsatellitenpunkt 2.96°N,
12.74°E
Startdatum 28. Okt. 2022
Alter 3.5 years
Typ internet
Startgruppe
Falcon 9 •
Group 4-31 •
48 satellites
Starlink 5290
54157
Starlink 5297 54158
Starlink 5294 54159
Starlink 5233 54160
Starlink 5269 54161
Starlink 5273 54162
Starlink 5161 54163
Starlink 5278 54164
Starlink 5279 54165
Starlink 5243 54167
Starlink 5245 54168
Starlink 5282 54169
Starlink 5155 54170
Starlink 5117 54172
Starlink 5242 54173
Starlink 5248 54174
Starlink 5256 54175
Starlink 5154 54176
Starlink 5186 54177
Starlink 5164 54178
...and 27 more
Technische Details
Klassifizierung Payload
Masse 305.00 kg
Trockenmasse 290.00 kg
Gesamtmasse 305.00 kg
Länge 0.20 m
Durchmesser 2.80 m
Spannweite 9.00 m
Form Box + pan
Hersteller SPXS
Bus-Typ Starlink
Phasenstatus In Orbit
Besitzer/Staat SPXS/US
Most Searched
Loading...